Flag for Norway Weather past 2 weeks in Knarrevik/Straume, Norway

Now
47 °F

Light rain. Low clouds.


Feels Like: 42 °F
Forecast: 48 / 54 °F
Wind: 9 mph from Northwest

Location: Bergen / Flesland

Current Time: Oct 22, 2014 at 5:35:02 AM

Latest Report: Oct 22, 2014 at 4:00 AM


Visibility: 5 mi

Pressure: 29.57 "Hg

Humidity: 94%

Dew point: 45 °F

Location of Knarrevik/StraumeLocation

Historic Weather in Knarrevik/Straume — Graph

°F

Knarrevik/Straume temperature yesterday

Maximum temperature yesterday: 55 °F (at 2:00 PM)
Minimum temperature yesterday: 47 °F (at 12:00 AM)
Average temperature yesterday: 51 °F

Past Weeks' High & Low Weather Summary

 TemperatureHumidityPressure
High72 °F (Oct 11, 7:00 PM)100% (Oct 11, 4:00 PM)29.99 "Hg (Oct 11, 4:00 PM)
Low35 °F (Oct 17, 7:00 AM)33% (Oct 7, 3:00 PM)29.18 "Hg (Oct 21, 3:00 PM)
Average50 °F78%29.64 "Hg
* Reported Oct 7 4:00 AM — Oct 22 4:00 AM, Knarrevik/Straume, Weather by CustomWeather, © 2014

Note: Actual official high and low records may vary slightly from our data, if they occured in-between our weather recording intervals... More about our weather records

Advertising

Knarrevik/Straume weather history for previous 24 hours

 ConditionsComfort  
Time TempWeatherWind HumidityBarometerVisibility
4:00 AM
Oct 22
47 °FLight rain. Low clouds.9 mph94%29.57 "Hg5 mi
3:00 AM48 °FRain. Low clouds.8 mph95%29.50 "Hg4 mi
2:00 AM51 °FRain. Overcast.2 mph93%29.44 "Hg6 mi
1:00 AM50 °FDrizzle. Overcast.3 mph89%29.38 "Hg12 mi
12:00 AM50 °FLight rain. Overcast.3 mph88%29.32 "Hg12 mi
11:00 PM
Oct 21
50 °FLight rain. Overcast.3 mph89%29.29 "Hg11 mi
10:00 PM49 °FLight rain. Overcast.2 mph90%29.26 "Hg12 mi
9:00 PM50 °FLight rain. Overcast.2 mph87%29.23 "Hg19 mi
8:00 PM50 °FDrizzle. Overcast.2 mph83%29.21 "Hg15 mi
7:00 PM50 °FDrizzle. Overcast.2 mph82%29.21 "Hg19 mi
6:00 PM52 °FLight rain. Overcast.3 mph75%29.18 "Hg15 mi
5:00 PM52 °FRain showers. Overcast.5 mph72%29.18 "Hg14 mi
4:00 PM54 °FDrizzle. Overcast.6 mph65%29.18 "Hg28 mi
3:00 PM54 °FRain showers. Overcast.8 mph64%29.18 "Hg25 mi
2:00 PM55 °FOvercast.8 mph62%29.21 "Hg25 mi
1:00 PM54 °FOvercast.8 mph63%29.21 "Hg25 mi
12:00 PM53 °FOvercast.8 mph65%29.23 "Hg28 mi
11:00 AM53 °FOvercast.9 mph69%29.26 "Hg31 mi
10:00 AM52 °FOvercast.9 mph73%29.26 "Hg28 mi
9:00 AM50 °FLight rain. Overcast.9 mph77%29.32 "Hg17 mi
8:00 AM51 °FOvercast.9 mph76%29.32 "Hg19 mi
7:00 AM50 °FOvercast.10 mph75%29.35 "Hg17 mi
6:00 AM49 °FOvercast.7 mph78%29.38 "Hg11 mi
5:00 AM49 °FOvercast.7 mph81%29.41 "Hg15 mi
Weather by CustomWeather, © 2014

See weather overviewHow to use our weather pages